Time,TemperatureF,DewpointF,PressureIn,WindDirection,WindDirectionDegrees,WindSpeedMPH,WindSpeedGustMPH,Humidity,HourlyPrecipIn,Conditions,Clouds,dailyrainin,SoftwareType,DateUTC
2013-07-31 00:00:00,73.2,70.4,30.19,East,85,0.0,0.0,91,0.00,,CLR,0.00,VWS V14.01,2013-07-31 04:00:00,
2013-07-31 00:13:00,73.0,70.2,30.19,East,85,0.0,0.0,91,0.00,,CLR,0.00,VWS V14.01,2013-07-31 04:13:00,
2013-07-31 00:28:00,73.2,70.7,30.18,East,85,0.0,0.0,92,0.00,,CLR,0.00,VWS V14.01,2013-07-31 04:28:00,
2013-07-31 00:43:00,72.9,70.4,30.18,East,85,0.0,1.3,92,0.00,,CLR,0.00,VWS V14.01,2013-07-31 04:43:00,
2013-07-31 00:58:00,72.9,70.8,30.17,East,85,0.0,0.0,93,0.01,,CLR,0.01,VWS V14.01,2013-07-31 04:58:00,
2013-07-31 01:13:00,72.8,70.7,30.17,East,85,0.0,0.0,93,0.01,,FEW070,0.01,VWS V14.01,2013-07-31 05:13:00,
2013-07-31 01:28:00,72.5,70.7,30.16,East,85,0.0,0.0,94,0.01,,FEW070,0.01,VWS V14.01,2013-07-31 05:28:00,
2013-07-31 01:43:00,72.3,70.2,30.16,East,85,0.0,0.0,93,0.01,,FEW070,0.01,VWS V14.01,2013-07-31 05:43:00,
2013-07-31 01:58:00,72.4,70.6,30.16,East,85,0.0,1.3,94,0.01,,FEW070,0.01,VWS V14.01,2013-07-31 05:58:00,
2013-07-31 02:13:00,72.5,70.4,30.15,East,85,0.0,0.0,93,0.00,,FEW065,0.01,VWS V14.01,2013-07-31 06:13:00,
2013-07-31 02:28:00,72.2,70.1,30.15,East,85,0.0,0.0,93,0.00,,FEW065,0.01,VWS V14.01,2013-07-31 06:28:00,
2013-07-31 02:43:00,71.9,70.1,30.15,East,85,0.0,0.0,94,0.00,,FEW065,0.01,VWS V14.01,2013-07-31 06:43:00,
2013-07-31 02:58:00,71.9,70.1,30.14,East,85,0.0,0.0,94,0.00,,FEW065,0.01,VWS V14.01,2013-07-31 06:58:00,
2013-07-31 03:13:00,71.7,69.9,30.15,East,85,0.0,0.0,94,0.00,,FEW065,0.01,VWS V14.01,2013-07-31 07:13:00,
2013-07-31 03:28:00,71.6,69.8,30.15,East,85,0.0,0.0,94,0.00,,FEW065,0.01,VWS V14.01,2013-07-31 07:28:00,
2013-07-31 03:43:00,71.5,69.7,30.15,East,85,0.0,0.0,94,0.00,,FEW065,0.01,VWS V14.01,2013-07-31 07:43:00,
2013-07-31 03:58:00,71.3,69.8,30.14,East,85,0.0,0.0,95,0.00,,FEW065,0.01,VWS V14.01,2013-07-31 07:58:00,
2013-07-31 04:13:00,71.2,69.7,30.15,East,85,0.0,0.0,95,0.00,,BKN110,0.01,VWS V14.01,2013-07-31 08:13:00,
2013-07-31 04:28:00,71.2,69.7,30.14,East,85,0.0,0.0,95,0.00,,BKN110,0.01,VWS V14.01,2013-07-31 08:28:00,
2013-07-31 04:43:00,71.2,69.7,30.14,East,85,0.0,0.0,95,0.01,,BKN110,0.02,VWS V14.01,2013-07-31 08:43:00,
2013-07-31 04:58:00,71.4,69.9,30.14,East,85,0.0,1.3,95,0.01,,BKN110,0.02,VWS V14.01,2013-07-31 08:58:00,
2013-07-31 05:13:00,71.2,69.7,30.14,East,85,0.0,0.0,95,0.01,,BKN110,0.02,VWS V14.01,2013-07-31 09:13:00,
2013-07-31 05:28:00,71.2,69.7,30.14,East,85,0.0,0.0,95,0.01,,BKN110,0.02,VWS V14.01,2013-07-31 09:28:00,
2013-07-31 05:43:00,71.1,69.6,30.14,East,85,0.0,1.3,95,0.01,,BKN110,0.02,VWS V14.01,2013-07-31 09:43:00,
2013-07-31 05:58:00,71.0,69.5,30.14,East,85,0.0,0.0,95,0.00,,BKN110,0.02,VWS V14.01,2013-07-31 09:58:00,
2013-07-31 06:13:00,70.9,69.4,30.15,East,85,0.0,1.3,95,0.00,,BKN095,0.02,VWS V14.01,2013-07-31 10:13:00,
2013-07-31 06:28:00,70.9,69.4,30.15,East,85,0.0,0.0,95,0.00,,BKN095,0.02,VWS V14.01,2013-07-31 10:28:00,
2013-07-31 06:43:00,70.8,69.3,30.15,East,85,0.0,0.0,95,0.00,,BKN095,0.02,VWS V14.01,2013-07-31 10:43:00,
2013-07-31 06:58:00,70.7,69.2,30.16,East,85,0.0,0.0,95,0.00,,BKN095,0.02,VWS V14.01,2013-07-31 10:58:00,
2013-07-31 07:13:00,70.7,69.2,30.16,East,85,0.0,1.3,95,0.00,,CLR,0.02,VWS V14.01,2013-07-31 11:13:00,
2013-07-31 07:28:00,70.7,69.2,30.16,East,85,0.0,0.0,95,0.00,,CLR,0.02,VWS V14.01,2013-07-31 11:28:00,
2013-07-31 07:43:00,70.8,69.3,30.16,East,85,0.0,1.3,95,0.00,,CLR,0.02,VWS V14.01,2013-07-31 11:43:00,
2013-07-31 07:58:00,71.0,69.5,30.16,East,85,0.0,0.0,95,0.00,,CLR,0.02,VWS V14.01,2013-07-31 11:58:00,
2013-07-31 08:13:00,71.1,69.6,30.16,East,85,0.0,1.3,95,0.00,,-RA,0.02,VWS V14.01,2013-07-31 12:13:00,
2013-07-31 08:28:00,71.3,69.8,30.16,East,85,0.0,0.0,95,0.00,,-RA,0.02,VWS V14.01,2013-07-31 12:28:00,
2013-07-31 08:43:00,71.3,69.5,30.16,East,85,0.0,0.0,94,0.00,,-RA,0.02,VWS V14.01,2013-07-31 12:43:00,
2013-07-31 08:58:00,71.5,69.4,30.16,East,85,0.0,1.3,93,0.00,,-RA,0.02,VWS V14.01,2013-07-31 12:58:00,
2013-07-31 09:13:00,71.5,69.4,30.16,East,85,0.0,0.0,93,0.00,,,0.02,VWS V14.01,2013-07-31 13:13:00,
2013-07-31 09:28:00,71.9,69.4,30.17,East,85,0.0,0.0,92,0.00,,,0.02,VWS V14.01,2013-07-31 13:28:00,
2013-07-31 09:43:00,72.4,69.6,30.16,East,85,0.0,1.3,91,0.00,,,0.02,VWS V14.01,2013-07-31 13:43:00,
2013-07-31 09:58:00,72.4,69.6,30.16,East,85,0.0,1.3,91,0.00,,,0.02,VWS V14.01,2013-07-31 13:58:00,
2013-07-31 10:13:00,72.4,69.9,30.16,East,85,1.3,1.3,92,0.01,,OVC110,0.03,VWS V14.01,2013-07-31 14:13:00,
2013-07-31 10:28:00,72.3,69.8,30.15,East,85,1.3,1.3,92,0.02,,OVC110,0.04,VWS V14.01,2013-07-31 14:28:00,
2013-07-31 10:43:00,72.7,70.2,30.15,East,85,0.0,2.6,92,0.02,,OVC110,0.04,VWS V14.01,2013-07-31 14:43:00,
2013-07-31 10:58:00,73.5,70.7,30.15,East,84,2.6,2.6,91,0.02,,OVC110,0.04,VWS V14.01,2013-07-31 14:58:00,
2013-07-31 11:13:00,74.2,71.4,30.14,North,360,1.3,2.6,91,0.02,,-RA,0.04,VWS V14.01,2013-07-31 15:13:00,
2013-07-31 11:28:00,75.4,71.6,30.14,NNW,347,0.0,1.3,88,0.01,,-RA,0.04,VWS V14.01,2013-07-31 15:28:00,
2013-07-31 11:43:00,76.9,72.7,30.13,WSW,254,2.6,2.6,87,0.00,,-RA,0.04,VWS V14.01,2013-07-31 15:43:00,
2013-07-31 11:58:00,79.0,73.8,30.13,East,86,2.6,3.9,84,0.00,,-RA,0.04,VWS V14.01,2013-07-31 15:58:00,
2013-07-31 12:13:00,79.0,73.8,30.12,ENE,67,1.3,1.3,84,0.00,,BKN040,0.04,VWS V14.01,2013-07-31 16:13:00,
2013-07-31 12:28:00,79.7,73.7,30.12,ENE,74,2.6,3.9,82,0.00,,BKN040,0.04,VWS V14.01,2013-07-31 16:28:00,
2013-07-31 12:43:00,79.5,73.9,30.12,NW,313,0.0,1.3,83,0.00,,BKN040,0.04,VWS V14.01,2013-07-31 16:43:00,
2013-07-31 12:58:00,79.7,74.1,30.11,NNE,22,2.6,2.6,83,0.00,,BKN040,0.04,VWS V14.01,2013-07-31 16:58:00,
2013-07-31 13:13:00,79.3,73.7,30.12,NNE,27,0.0,3.9,83,0.00,,OVC085,0.04,VWS V14.01,2013-07-31 17:13:00,
2013-07-31 13:28:00,79.1,73.8,30.11,ESE,111,0.0,3.9,84,0.00,,OVC085,0.04,VWS V14.01,2013-07-31 17:28:00,
2013-07-31 13:43:00,79.7,74.1,30.10,ENE,65,0.0,3.9,83,0.00,,OVC085,0.04,VWS V14.01,2013-07-31 17:43:00,
2013-07-31 13:58:00,79.3,74.1,30.09,ENE,76,1.3,3.9,84,0.00,,OVC085,0.04,VWS V14.01,2013-07-31 17:58:00,
2013-07-31 14:13:00,78.5,73.6,30.09,ENE,67,0.0,0.0,85,0.00,,BKN100,0.04,VWS V14.01,2013-07-31 18:13:00,
2013-07-31 14:28:00,77.2,73.7,30.09,ENE,67,2.6,2.6,89,0.07,,OVC075,0.11,VWS V14.01,2013-07-31 18:28:00,
2013-07-31 14:43:00,75.9,73.1,30.08,ENE,67,1.3,1.3,91,0.10,,OVC075,0.14,VWS V14.01,2013-07-31 18:43:00,
2013-07-31 14:58:00,75.8,73.0,30.07,NE,42,5.2,5.2,91,0.10,,OVC075,0.14,VWS V14.01,2013-07-31 18:58:00,
2013-07-31 15:13:00,74.4,71.6,30.08,NW,307,3.9,10.4,91,0.12,,-RA,0.16,VWS V14.01,2013-07-31 19:13:00,
2013-07-31 15:28:00,72.5,70.1,30.07,SW,227,0.0,3.9,92,0.16,,-RA,0.20,VWS V14.01,2013-07-31 19:28:00,
2013-07-31 15:43:00,72.6,70.5,30.06,WSW,252,0.0,1.3,93,0.10,,-RA,0.21,VWS V14.01,2013-07-31 19:43:00,
2013-07-31 15:58:00,73.0,70.9,30.06,West,259,0.0,3.9,93,0.07,,-RA,0.21,VWS V14.01,2013-07-31 19:58:00,
2013-07-31 16:13:00,72.9,70.8,30.05,West,259,0.0,1.3,93,0.09,,-RA,0.23,VWS V14.01,2013-07-31 20:13:00,
2013-07-31 16:28:00,73.8,72.0,30.04,NW,319,0.0,1.3,94,0.10,,-RA,0.26,VWS V14.01,2013-07-31 20:28:00,
2013-07-31 16:43:00,74.3,71.8,30.04,NW,319,0.0,1.3,92,0.06,,-RA,0.26,VWS V14.01,2013-07-31 20:43:00,
2013-07-31 16:58:00,74.5,72.3,30.04,NW,319,0.0,1.3,93,0.05,,-RA,0.26,VWS V14.01,2013-07-31 20:58:00,
2013-07-31 17:13:00,75.3,73.1,30.03,NW,319,0.0,0.0,93,0.05,,OVC090,0.26,VWS V14.01,2013-07-31 21:13:00,
2013-07-31 17:28:00,75.7,73.5,30.02,NW,319,0.0,1.3,93,0.03,,OVC090,0.26,VWS V14.01,2013-07-31 21:28:00,
2013-07-31 17:43:00,75.5,72.4,30.02,NW,319,0.0,1.3,90,0.00,,OVC090,0.26,VWS V14.01,2013-07-31 21:43:00,
2013-07-31 17:58:00,75.3,72.5,30.02,NW,319,1.3,1.3,91,0.00,,OVC090,0.26,VWS V14.01,2013-07-31 21:58:00,
2013-07-31 18:13:00,75.2,72.4,30.01,NW,319,0.0,1.3,91,0.00,,SCT090,0.26,VWS V14.01,2013-07-31 22:13:00,
2013-07-31 18:28:00,75.4,72.3,30.01,NW,319,0.0,1.3,90,0.00,,SCT090,0.26,VWS V14.01,2013-07-31 22:28:00,
2013-07-31 18:43:00,75.7,72.6,30.00,NW,319,0.0,1.3,90,0.00,,SCT090,0.26,VWS V14.01,2013-07-31 22:43:00,
2013-07-31 18:58:00,76.4,72.2,30.00,North,5,1.3,2.6,87,0.00,,SCT090,0.26,VWS V14.01,2013-07-31 22:58:00,
2013-07-31 19:13:00,76.2,72.4,30.01,North,5,0.0,0.0,88,0.01,,BKN095,0.27,VWS V14.01,2013-07-31 23:13:00,
2013-07-31 19:28:00,76.8,73.3,30.00,North,5,0.0,0.0,89,0.01,,BKN095,0.27,VWS V14.01,2013-07-31 23:28:00,
2013-07-31 19:43:00,75.9,72.4,30.01,North,5,0.0,0.0,89,0.01,,BKN095,0.27,VWS V14.01,2013-07-31 23:43:00,
2013-07-31 19:58:00,75.2,72.4,30.02,North,5,0.0,0.0,91,0.01,,BKN095,0.27,VWS V14.01,2013-07-31 23:58:00,
2013-07-31 20:13:00,74.8,72.3,30.02,North,5,0.0,0.0,92,0.01,,SCT055,0.27,VWS V14.01,2013-08-01 00:13:00,
2013-07-31 20:28:00,74.1,71.6,30.03,North,5,0.0,0.0,92,0.00,,SCT055,0.27,VWS V14.01,2013-08-01 00:28:00,
2013-07-31 20:43:00,73.5,71.4,30.03,North,5,0.0,0.0,93,0.00,,SCT055,0.27,VWS V14.01,2013-08-01 00:43:00,
2013-07-31 20:58:00,73.2,71.4,30.03,North,5,0.0,1.3,94,0.00,,SCT055,0.27,VWS V14.01,2013-08-01 00:58:00,
2013-07-31 21:13:00,73.4,71.6,30.03,North,5,0.0,0.0,94,0.00,,SCT060,0.27,VWS V14.01,2013-08-01 01:13:00,
2013-07-31 21:28:00,73.4,71.6,30.03,North,5,0.0,0.0,94,0.00,,SCT060,0.27,VWS V14.01,2013-08-01 01:28:00,
2013-07-31 21:43:00,73.2,71.4,30.03,North,5,0.0,0.0,94,0.00,,SCT060,0.27,VWS V14.01,2013-08-01 01:43:00,
2013-07-31 21:58:00,73.1,71.3,30.03,North,5,0.0,0.0,94,0.00,,SCT060,0.27,VWS V14.01,2013-08-01 01:58:00,
2013-07-31 22:13:00,73.0,71.2,30.03,North,5,0.0,1.3,94,0.00,,BKN060,0.27,VWS V14.01,2013-08-01 02:13:00,
2013-07-31 22:28:00,73.0,70.9,30.03,SW,227,2.6,3.9,93,0.00,,BKN060,0.27,VWS V14.01,2013-08-01 02:28:00,
2013-07-31 22:43:00,73.3,71.2,30.03,South,171,1.3,5.2,93,0.00,,BKN060,0.27,VWS V14.01,2013-08-01 02:43:00,
2013-07-31 22:58:00,73.2,71.1,30.03,South,171,1.3,1.3,93,0.02,,OVC070,0.29,VWS V14.01,2013-08-01 02:58:00,
2013-07-31 23:13:00,73.1,71.0,30.03,South,170,0.0,1.3,93,0.03,,OVC021,0.30,VWS V14.01,2013-08-01 03:13:00,
2013-07-31 23:28:00,72.8,71.0,30.02,SSE,161,2.6,2.6,94,0.03,,OVC021,0.30,VWS V14.01,2013-08-01 03:28:00,
2013-07-31 23:43:00,72.7,70.9,30.02,SSW,209,0.0,5.2,94,0.03,,OVC021,0.30,VWS V14.01,2013-08-01 03:43:00,
2013-07-31 23:45:00,72.7,70.9,30.02,SSW,209,0.0,5.2,94,0.03,,-RA,0.30,VWS V14.01,2013-08-01 03:45:00,